Location: Bats
(43.6587°N, 0.4584°W)
Time: 15:44:29
(UTC+00:00)

Cosmos 1953 - Pass Details

Date: 12 January 2026
Orbit: 474 x 489 km, 82.5° (Epoch: 18 February)

Event Time Altitude Azimuth Distance (km) Brightness Sun altitude
Rises 18:50:47 0° 342° (NNW) 2,584 5.9 -21.8°
Reaches altitude 10° 18:53:03 10° 332° (NNW) 1,697 5.0 -22.2°
Maximum altitude 18:56:22 32° 269° (W) 877 4.0 -22.8°
Drops below altitude 10° 18:59:40 10° 205° (SSW) 1,683 5.2 -23.4°
Sets 19:01:54 0° 195° (SSW) 2,559 6.0 -23.8°
